Regional Weather Roundup
Issued by NWS Sterling, VA

Home | Current Version | Previous Version | Text Only | Print | Product List | Glossary Off
Versions: 1 2 3 4 5 6 7 8 9 10 11 12 13 14 15 16 17 18 19 20 21 22 23 24 25 26 27

000
ASUS41 KLWX 291510
RWRLWX

REGIONAL WEATHER ROUNDUP
NATIONAL WEATHER SERVICE BALTIMORE MD/WASHINGTON DC
1100 AM EDT SUN MAY 29 2016

Note: "FAIR" indicates few or no clouds below 12,000 feet
with no significant weather and/or obstructions to visibility.
 TC=TEMPERATURE CELSIUS

 * =Non NWS site. Station does not report precipitation (e.g. rain,
    snow, etc.), thunder, or fog.

DCZ001-MDZ009-015-VAZ040>042-051-053>054-291600-
WASHINGTON METRO

CITY           SKY/WX    TMP DP  RH WIND       PRES   REMARKS
WASHINGTON NAT PTSUNNY   77  68  73 S8        30.15S
DULLES         PTSUNNY   79  65  62 SW7       30.14F
ANDREWS AFB    MOSUNNY   79  67  64 S6        30.14S
FT BELVOIR     FAIR      79  66  64 S7        30.14S
QUANTICO       FAIR      76  68  76 S5        30.14F
COLLEGE PARK*  FAIR      79  64  61 SW3       30.13S
LEESBURG*      FAIR      81  68  65 SW3       30.15S
MANASSAS*      SUNNY     79  66  65 SW3       30.14S

$$

MDZ006>007-011-014-291600-
BALTIMORE METRO

CITY           SKY/WX    TMP DP  RH WIND       PRES   REMARKS
BWI AIRPORT    PTSUNNY   80  64  58 VRB3      30.13F
MD SCIENCE CTR   N/A     78  66  66 MISG      30.14F
MARTIN STATE   MOSUNNY   77  72  83 SE7       30.16F
ANNAPOLIS      SUNNY     71  68  90 SE12      30.14S
FORT MEADE*    SUNNY     81  64  57 SE6       30.16S

$$

MDZ012-015-019>023-291600-
MARYLAND EASTERN SHORE

CITY           SKY/WX    TMP DP  RH WIND       PRES   REMARKS
OCEAN CITY     CLOUDY    72  68  87 SE7       30.17S
SALISBURY      PTSUNNY   79  69  71 S7        30.15F
BAY BRIDGE AP* MOSUNNY   75  70  83 W5        30.15S
CAMBRIDGE*     PTSUNNY   79  68  69 SE9       30.14F
EASTON*        MOSUNNY   82  68  61 SE7       30.18

$$

MDZ017>025-291600-
SOUTHERN MARYLAND

CITY           SKY/WX    TMP DP  RH WIND       PRES   REMARKS
PATUXENT RIVER PTSUNNY   74  69  85 SE9       30.14F
ST INIGOES     MOSUNNY   78  72  81 S8        30.14S
LEONARDTOWN*   PTSUNNY   77  68  73 E5        30.16S

$$

MDZ003>005-291600-
NORTH CENTRAL MARYLAND

CITY           SKY/WX    TMP DP  RH WIND       PRES   REMARKS
FREDERICK*     SUNNY     79  68  69 CALM      30.16F
HAGERSTOWN APT PTSUNNY   79  63  57 CALM      30.14F
WESTMINSTER*   MOSUNNY   79  75  89 CALM      30.15F

$$

MDZ501>502-291600-
WESTERN MARYLAND

CITY           SKY/WX    TMP DP  RH WIND       PRES   REMARKS
OAKLAND*       NOT AVBL
CUMBERLAND*    CLOUDY    77  68  73 S5        30.17S

$$

VAZ025>031-291600-
SHENANDOAH VALLEY

CITY           SKY/WX    TMP DP  RH WIND       PRES   REMARKS
WINCHESTER*    FAIR      79  63  57 S3        30.15S
FRONT ROYAL*   FAIR      77  66  69 CALM      30.14S
LURAY*         FAIR      77  64  65 CALM      30.15F
NEW MARKET*    FAIR      79  64  61 S5        30.13F
STAUNTON*      FAIR      76  61  61 S6        30.18S
WAYNESBORO*    FAIR      75  59  57 SW3       30.18S

$$

WVZ021-048>050-054>055-291600-
EASTERN WEST VIRGINIA PANHANDLE

CITY           SKY/WX    TMP DP  RH WIND       PRES   REMARKS
MARTINSBURG    FAIR      77  64  64 S6        30.13F
PETERSBURG*    FAIR      77  66  69 CALM      30.14F

$$

VAZ036>039-050-291600-
CENTRAL FOOTHILLS

CITY           SKY/WX    TMP DP  RH WIND       PRES   REMARKS
CHARLOTTESVILL FAIR      79  63  57 CALM      30.14F
CULPEPER*      FAIR      79  66  65 SW3       30.15S
ORANGE*        FAIR      81  66  61 CALM      30.15F
GORDONSVILLE*  FAIR      79  68  68 S5        30.13F
WARRENTON*     FAIR      81  64  55 CALM      30.14S

$$

VAZ055>057-291600-
NORTH AND CENTRAL PIEDMONT

CITY           SKY/WX    TMP DP  RH WIND       PRES   REMARKS
FREDERICKSBRG* FAIR      80  67  65 CALM      30.12F
STAFFORD*      FAIR      80  66  63 SE5       30.18S

$$

NCZ024-NYZ072-PAZ021-071-VAZ022-071-291600-
OTHER REGIONAL OBSERVATIONS

CITY           SKY/WX    TMP DP  RH WIND       PRES   REMARKS
NEW YORK CITY  MOSUNNY   82  60  47 CALM      30.16F
PHILADELPHIA   MOSUNNY   79  61  53 SW8       30.15F
PITTSBURGH     CLOUDY    81  65  58 VRB3      30.12F
ROANOKE        CLOUDY    74  64  71 VRB3      30.18F
RICHMOND       PTSUNNY   78  68  71 E3        30.13S
RALEIGH        LGT RAIN  72  70  93 NE7       30.10F FOG

$$

ANZ530>537-291600-
MARINE OBSERVATIONS

STATION/POSITION TIME  TEMP    WIND        PRES
                       AIR SEA DIR/SP/G
                 (UTC) (F)     (DEG/KT/KT) (MB)
THOMAS PT LIGHT  1500   70 67  160/  3/  4 1022.3R
BALT KEY BRIDGE  1400   71      90/  7/  7 1020.7F
COVE POINT       1400   69     180/  5/  5 1021.7R
LEWISETTA        1400   70 67  110/  9/ 10 1020.5S
SOLOMONS ISLAND  1400   70 67   70/  8/  8   N/A
PINEY POINT      1400          150/  9/  9   N/A

$$





USA.gov is the U.S. government's official web portal to all federal, state and local government web resources and services.